Savanna, IA

4:20 AM CST on January 18, 2018 (GMT -0600)
Tri-Township

Weather History for KSFY - October, 2012

Change the Weather History Date:

Tuesday, October 2, 2012

  Actual Average (KCWI) Record (KCWI)
Temperature  
Mean Temperature 58 °F -  
Max Temperature 76 °F 71 °F 92 °F (1953)
Min Temperature 41 °F 47 °F 21 °F (2003)
Degree Days  
Heating Degree Days 6    
Growing Degree Days 8 (Base 50)    
Moisture  
Dew Point 42 °F    
Average Humidity 60    
Maximum Humidity 96    
Minimum Humidity 27    
Precipitation  
Precipitation 0.00 in - - ()
Sea Level Pressure  
Sea Level Pressure 29.88 in    
Wind  
Wind Speed 3 mph (NNE)    
Max Wind Speed 10 mph    
Max Gust Speed -    
Visibility 10 miles    
Events      
Averages and records for this station are not official NWS values.
T = Trace of Precipitation, MM = Missing Value Source: NWS Daily Summary

Daily Weather History Graph

Daily Weather History Graph

Search for Another Location

Airport or City:

Trip Planner

Search our weather history database for the weather conditions in past years. The results will help you decide how hot, cold, wet, or windy it might be!

Date:

Astronomy

Oct. 02, 2012 Rise Set
Actual Time 6:59 AM CDT 6:39 PM CDT
Civil Twilight 6:31 AM CDT 7:07 PM CDT
Nautical Twilight 5:58 AM CDT 7:39 PM CDT
Astronomical Twilight 5:26 AM CDT 8:12 PM CDT
Moon 7:48 PM CDT (10/2) 9:29 AM CDT (10/2)
Length of Visible Light 12h 36m
Length of Day
11h 40m
Waning Gibbous, 94% of the Moon is Illuminated
Oct 2
Waning Gibbous
Oct 8
Last Quarter
Oct 15
New
Oct 21
First Quarter
Oct 29
Full

Hourly Weather History & Observations

Time (CDT) Temp. Windchill Dew Point Humidity Pressure Visibility Wind Dir Wind Speed Gust Speed Precip Events Conditions
12:15 AM 52.5 °F - 45.9 °F 78% 29.84 in 7.0 mi Calm Calm - N/A   Clear
12:35 AM 52.5 °F - 44.8 °F 75% 29.84 in 10.0 mi Calm Calm - N/A   Clear
12:55 AM 51.6 °F - 44.2 °F 76% 29.84 in 10.0 mi NNW 3.5 mph - N/A   Clear
1:15 AM 50.2 °F - 43.9 °F 79% 29.84 in 10.0 mi North 3.5 mph - N/A   Clear
1:35 AM 50.0 °F - 44.4 °F 81% 29.84 in 10.0 mi North 3.5 mph - N/A   Clear
2:15 AM 47.7 °F - 44.8 °F 90% 29.85 in 10.0 mi Calm Calm - N/A   Clear
2:35 AM 46.2 °F - 43.9 °F 92% 29.85 in 7.0 mi Calm Calm - N/A   Clear
2:55 AM 46.4 °F - 44.2 °F 92% 29.85 in 10.0 mi Calm Calm - N/A   Clear
3:15 AM 46.9 °F - 43.7 °F 88% 29.86 in 10.0 mi NNW 3.5 mph - N/A   Clear
3:35 AM 45.7 °F - 43.3 °F 92% 29.86 in 10.0 mi Calm Calm - N/A   Clear
3:55 AM 44.4 °F 42.9 °F 42.4 °F 93% 29.86 in 10.0 mi NNE 3.5 mph - N/A   Clear
4:15 AM 44.2 °F - 42.8 °F 95% 29.86 in 10.0 mi Calm Calm - N/A   Clear
4:35 AM 45.7 °F - 43.3 °F 92% 29.86 in 10.0 mi Calm Calm - N/A   Clear
4:55 AM 44.6 °F - 42.4 °F 92% 29.86 in 10.0 mi Calm Calm - N/A   Clear
5:35 AM 44.1 °F - 42.8 °F 95% 29.86 in 10.0 mi Calm Calm - N/A   Clear
5:55 AM 42.8 °F - 41.0 °F 93% 29.86 in 10.0 mi Calm Calm - N/A   Clear
6:15 AM 43.0 °F - 41.9 °F 96% 29.87 in 10.0 mi Calm Calm - N/A   Clear
6:35 AM 42.1 °F - 40.8 °F 95% 29.88 in 5.0 mi Calm Calm - N/A   Clear
6:55 AM 41.5 °F 37.1 °F 40.5 °F 96% 29.89 in 10.0 mi North 6.9 mph - N/A   Clear
7:15 AM 41.5 °F - 40.3 °F 95% 29.89 in 10.0 mi Calm Calm - N/A   Clear
7:35 AM 42.3 °F 40.5 °F 40.6 °F 94% 29.90 in 10.0 mi North 3.5 mph - N/A   Clear
7:55 AM 44.2 °F - 42.4 °F 93% 29.90 in 10.0 mi Calm Calm - N/A   Clear
8:15 AM 46.2 °F - 42.8 °F 88% 29.91 in 10.0 mi Calm Calm - N/A   Clear
8:35 AM 49.5 °F - 43.9 °F 81% 29.91 in 10.0 mi Calm Calm - N/A   Clear
8:55 AM 51.8 °F - 43.9 °F 74% 29.91 in 10.0 mi North 3.5 mph - N/A   Clear
9:15 AM 54.7 °F - 44.2 °F 68% 29.91 in 10.0 mi North 4.6 mph - N/A   Clear
9:35 AM 57.2 °F - 44.8 °F 63% 29.92 in 10.0 mi Calm Calm - N/A   Clear
9:55 AM 60.4 °F - 44.4 °F 56% 29.92 in 10.0 mi NNE 3.5 mph - N/A   Clear
10:15 AM 62.8 °F - 41.4 °F 45% 29.91 in 10.0 mi NE 4.6 mph - N/A   Clear
10:35 AM 64.9 °F - 43.0 °F 45% 29.92 in 10.0 mi NNE 4.6 mph - N/A   Clear
10:55 AM 67.8 °F - 42.3 °F 39% 29.91 in 10.0 mi ENE 6.9 mph - N/A   Clear
11:15 AM 68.5 °F - 41.7 °F 38% 29.91 in 10.0 mi ENE 5.8 mph - N/A   Clear
11:35 AM 69.3 °F - 42.1 °F 37% 29.91 in 10.0 mi NNE 5.8 mph - N/A   Clear
11:55 AM 70.7 °F - 41.2 °F 34% 29.90 in 10.0 mi NE 9.2 mph - N/A   Clear
12:15 PM 70.9 °F - 41.2 °F 34% 29.90 in 10.0 mi NNE 10.4 mph - N/A   Clear
12:35 PM 71.4 °F - 40.8 °F 33% 29.89 in 10.0 mi ENE 9.2 mph - N/A   Clear
12:55 PM 71.2 °F - 40.6 °F 33% 29.88 in 10.0 mi ENE 5.8 mph - N/A   Clear
1:15 PM 72.9 °F - 40.6 °F 31% 29.88 in 10.0 mi North 10.4 mph - N/A   Clear
1:35 PM 73.4 °F - 39.6 °F 29% 29.87 in 10.0 mi North 8.1 mph - N/A   Clear
1:55 PM 73.2 °F - 40.5 °F 31% 29.86 in 10.0 mi NNE 10.4 mph - N/A   Clear
2:15 PM 74.1 °F - 39.7 °F 29% 29.86 in 10.0 mi North 8.1 mph - N/A   Clear
2:35 PM 75.2 °F - 40.1 °F 28% 29.85 in 10.0 mi NE 5.8 mph - N/A   Clear
2:55 PM 75.0 °F - 39.6 °F 28% 29.85 in 10.0 mi NE 5.8 mph - N/A   Clear
3:15 PM 75.9 °F - 39.2 °F 27% 29.84 in 10.0 mi NNE 8.1 mph - N/A   Clear
3:35 PM 75.9 °F - 39.6 °F 27% 29.84 in 10.0 mi NNE 8.1 mph - N/A   Clear
3:55 PM 75.7 °F - 40.1 °F 28% 29.84 in 10.0 mi North 8.1 mph - N/A   Clear
4:15 PM 76.3 °F - 39.9 °F 27% 29.84 in 10.0 mi North 9.2 mph - N/A   Clear
4:35 PM 75.6 °F - 39.7 °F 28% 29.84 in 10.0 mi NNE 6.9 mph - N/A   Clear
4:55 PM 75.2 °F - 39.7 °F 28% 29.84 in 10.0 mi NE 6.9 mph - N/A   Clear
5:15 PM 74.5 °F - 39.7 °F 29% 29.84 in 10.0 mi NNE 8.1 mph - N/A   Clear
5:35 PM 73.8 °F - 40.3 °F 30% 29.84 in 10.0 mi NNE 6.9 mph - N/A   Clear
5:55 PM 72.3 °F - 41.0 °F 32% 29.84 in 10.0 mi NNE 6.9 mph - N/A   Clear
6:15 PM 70.3 °F - 41.9 °F 36% 29.85 in 10.0 mi NNE 5.8 mph - N/A   Clear
6:35 PM 68.2 °F - 42.4 °F 39% 29.86 in 10.0 mi NNE 4.6 mph - N/A   Clear
7:15 PM 64.4 °F - 41.7 °F 44% 29.87 in 10.0 mi ENE 3.5 mph - N/A   Clear
7:35 PM 60.4 °F - 41.9 °F 50% 29.87 in 10.0 mi NNE 3.5 mph - N/A   Clear
7:55 PM 60.6 °F - 44.8 °F 56% 29.88 in 10.0 mi Calm Calm - N/A   Clear
8:15 PM 60.1 °F - 44.1 °F 55% 29.88 in 10.0 mi Calm Calm - N/A   Clear
8:35 PM 58.8 °F - 44.2 °F 58% 29.89 in 10.0 mi Calm Calm - N/A   Clear
8:55 PM 57.9 °F - 44.4 °F 61% 29.89 in 10.0 mi Calm Calm - N/A   Clear
9:15 PM 56.1 °F - 44.8 °F 66% 29.90 in 10.0 mi Calm Calm - N/A   Clear
9:35 PM 54.0 °F - 44.4 °F 70% 29.91 in 10.0 mi Calm Calm - N/A   Clear
9:55 PM 55.0 °F - 44.6 °F 68% 29.91 in 10.0 mi NE 3.5 mph - N/A   Clear
10:15 PM 55.6 °F - 43.2 °F 63% 29.91 in 10.0 mi NE 3.5 mph - N/A   Clear
10:35 PM 56.1 °F - 42.8 °F 61% 29.92 in 10.0 mi Calm Calm - N/A   Clear
10:55 PM 57.0 °F - 41.0 °F 55% 29.92 in 10.0 mi Calm Calm - N/A   Clear
11:15 PM 55.8 °F - 41.2 °F 58% 29.92 in 10.0 mi Calm Calm - N/A   Clear
11:35 PM 51.3 °F - 41.4 °F 69% 29.92 in 10.0 mi North 3.5 mph - N/A   Clear
11:55 PM 52.5 °F - 42.1 °F 68% 29.92 in 10.0 mi NNE 3.5 mph - N/A   Clear